Flag for Germany Weather past 2 weeks in Laatzen, Lower Saxony, Germany

Now
37 °F

Passing clouds.


Feels Like: 31 °F
Forecast: 36 / 43 °F
Wind: 8 mph from West

Location: Hannover

Current Time: Mar 3, 2015 at 5:02:02 AM

Latest Report: Mar 3, 2015 at 3:00 AM


Visibility: 19 mi

Pressure: 29.90 "Hg

Humidity: 75%

Dew point: 29 °F

Location of LaatzenLocation

Historic Weather in Laatzen — Graph

°F

Laatzen temperature yesterday

Maximum temperature yesterday: 46 °F (at 3:00 PM)
Minimum temperature yesterday: 35 °F (at 8:00 PM)
Average temperature yesterday: 41 °F

Past Weeks' High & Low Weather Summary

 TemperatureHumidityPressure
High49 °F (Mar 1, 1:00 PM)100% (Feb 18, 1:00 AM)30.74 "Hg (Feb 18, 1:00 AM)
Low27 °F (Feb 17, 6:00 AM)43% (Feb 28, 4:00 PM)29.32 "Hg (Feb 21, 7:00 AM)
Average39 °F79%29.92 "Hg
* Reported Feb 16 3:00 AM — Mar 3 3:00 AM, Laatzen, Weather by CustomWeather, © 2015

Note: Actual official high and low records may vary slightly from our data, if they occured in-between our weather recording intervals... More about our weather records

Advertising

Laatzen weather history for previous 24 hours

 ConditionsComfort  
Time TempWeatherWind HumidityBarometerVisibility
3:00 AM
Tue, Mar 3
37 °FPassing clouds.8 mph75%29.90 "Hg19 mi
2:00 AM36 °FPassing clouds.8 mph81%29.87 "Hg19 mi
1:00 AM36 °FPassing clouds.9 mph85%29.84 "Hg19 mi
12:00 AM36 °FOvercast.8 mph82%29.82 "Hg25 mi
11:00 PM
Mon, Mar 2
36 °FOvercast.10 mph81%29.79 "Hg25 mi
9:00 PM36 °FOvercast.8 mph87%29.75 "Hg25 mi
8:00 PM35 °FLow clouds.9 mph92%29.72 "Hg12 mi
7:00 PM40 °FSprinkles. Overcast.7 mph74%29.68 "Hg28 mi
6:00 PM40 °FOvercast.6 mph76%29.65 "Hg28 mi
5:00 PM40 °FPartly sunny.5 mph79%29.65 "Hg28 mi
4:00 PM43 °FOvercast.7 mph64%29.62 "Hg25 mi
3:00 PM46 °FPartly sunny.9 mph52%29.60 "Hg28 mi
2:00 PM45 °FPartly sunny.9 mph58%29.59 "Hg25 mi
1:00 PM43 °FPartly sunny.10 mph61%29.58 "Hg25 mi
12:00 PM43 °FPartly sunny.10 mph63%29.57 "Hg25 mi
11:00 AM42 °FPartly sunny.10 mph65%29.54 "Hg25 mi
10:00 AM42 °FPassing clouds.9 mph67%29.50 "Hg25 mi
9:00 AM41 °FScattered clouds.8 mph68%29.47 "Hg25 mi
8:00 AM40 °FScattered clouds.9 mph68%29.47 "Hg25 mi
7:00 AM40 °FPassing clouds.7 mph72%29.44 "Hg25 mi
6:00 AM41 °FOvercast.10 mph70%29.41 "Hg19 mi
5:00 AM42 °FPassing clouds.8 mph78%29.38 "Hg19 mi
Weather by CustomWeather, © 2015

See weather overviewHow to use our weather pages